Flag for U.S.A. Weather past 2 weeks in Santa Fe, New Mexico, U.S.A.

Now
73 °F

Clear.


Feels Like: 77 °F
Forecast: 63 / 85 °F
Wind: 3 mph from East

Location: Santa Fe County Municipal Airport

Current Time: Jul 22, 2014 at 1:31:15 AM

Latest Report: Jul 22, 2014 at 12:53 AM


Visibility: 10 mi

Pressure: 29.96 "Hg

Humidity: 43%

Dew point: 49 °F

Location of Santa FeLocation

Historic Weather in Santa Fe — Graph

°F

Santa Fe temperature yesterday

Maximum temperature yesterday: 92 °F (at 3:53 PM)
Minimum temperature yesterday: 64 °F (at 6:53 AM)
Average temperature yesterday: 78 °F

Past Weeks' High & Low Weather Summary

 TemperatureHumidityPressure
High92 °F (Jul 20, 2:53 PM)97% (Jul 15, 4:04 AM)30.41 "Hg (Jul 15, 4:04 AM)
Low56 °F (Jul 12, 4:53 AM)14% (Jul 19, 4:53 PM)29.75 "Hg (Jul 17, 4:53 PM)
Average72 °F51%29.93 "Hg
* Reported Jul 6 11:53 PM — Jul 21 11:53 PM, Santa Fe, Weather by CustomWeather, © 2014

Note: Actual official high and low records may vary slightly from our data, if they occured in-between our weather recording intervals... More about our weather records

Advertising

Santa Fe weather history for previous 24 hours

 ConditionsComfort  
Time TempWeatherWind HumidityBarometerVisibility
11:53 PM
Jul 21
73 °FClear.6 mph43%29.94 "Hg10 mi
10:53 PM76 °FClear.10 mph35%29.93 "Hg10 mi
9:53 PM79 °FClear.3 mph28%29.93 "Hg10 mi
8:53 PM81 °FPassing clouds.7 mph28%29.90 "Hg10 mi
7:53 PM85 °FScattered clouds.No wind22%29.88 "Hg10 mi
6:53 PM89 °FSunny.7 mph17%29.87 "Hg10 mi
5:53 PM88 °FSunny.10 mph18%29.86 "Hg10 mi
4:53 PM91 °FOvercast.10 mph20%29.85 "Hg10 mi
3:53 PM92 °FSunny.14 mph17%29.86 "Hg10 mi
2:53 PM91 °FSunny.12 mph18%29.87 "Hg10 mi
1:53 PM91 °FSunny.7 mph19%29.89 "Hg10 mi
12:53 PM87 °FSunny.12 mph21%29.91 "Hg10 mi
11:53 AM88 °FSunny.9 mph22%29.93 "Hg10 mi
10:53 AM83 °FSunny.7 mph31%29.95 "Hg10 mi
9:53 AM77 °FSunny.No wind42%29.96 "Hg10 mi
8:53 AM75 °FSunny.3 mph43%29.99 "Hg10 mi
7:53 AM71 °FSunny.No wind53%29.95 "Hg10 mi
6:53 AM64 °FClear.No wind65%29.95 "Hg10 mi
5:53 AM67 °FClear.3 mph55%29.90 "Hg10 mi
4:53 AM66 °FClear.13 mph61%29.90 "Hg10 mi
3:53 AM66 °FClear.9 mph63%29.87 "Hg10 mi
2:53 AM67 °FClear.9 mph61%29.87 "Hg10 mi
1:53 AM67 °FPassing clouds.9 mph66%29.88 "Hg10 mi
Weather by CustomWeather, © 2014

See weather overviewHow to use our weather pages